sat.trackr.live / text

‹ back to catalog

STARLINK-30249

NORAD 57618 · 2023-119S

PAYLOAD ACTIVE UNKNOWN

§ Identity

Operator
Country
US
Launch date
2023-08-11
Launch site
AFETR
Launch vehicle
Mass (kg)
RCS (m²)

Purposes: comms

External: N2YO · Heavens-Above · Gunter

§ Orbital elements

Epoch: 2026-09-20T04:14:17.615328Z

Period
94.27 min
Inclination
43.0042°
Eccentricity
0.0001692
Mean motion
15.27586353 rev/d
Perigee alt
481.9 km
Apogee alt
484.2 km
Semi-major
6,861.2 km
B*
-2.9466e-5
RAAN
62.9689°
Arg perigee
268.4371°
Mean anomaly
91.6287°
Rev number
17,283

§ Raw data

STARLINK-302491 57618U 23119S   26263.17659277 -.00001073  00000+0 -29466-4 0  99992 57618  43.0042  62.9689 0001692 268.4371  91.6287 15.27586353172830

JSON: /api/v1/satellites/57618 · /tle

For live sub-satellite position, see the globe view (requires WebGL).

§ Visibility from observer

Set your observer location to see the next 7 days of passes ≥ 10°. The values pass through the URL so the page stays shareable.

No JS? Fill the form by hand. The geolocation button needs JavaScript.